| time (UTC) | temp F | wind direction | speed MPH | gust MPH | rain 1hr in | rain 24hr in | rain mn in | humidity % | barometer mb |
| 20260903045244 | 69 | 152 | 4.0 | 9.0 | 0.00 | 0.00 | 0.00 | 94 | 902.9 |
| 20260903045043 | 69 | 130 | 2.0 | 8.0 | 0.00 | 0.00 | 0.00 | 94 | 902.9 |
| 20260903044644 | 69 | 235 | 3.0 | 9.0 | 0.00 | 0.00 | 0.00 | 94 | 902.9 |
| 20260903044543 | 69 | 206 | 4.0 | 9.0 | 0.00 | 0.00 | 0.00 | 94 | 903.0 |
| 20260903044045 | 69 | 154 | 4.0 | 7.0 | 0.00 | 0.00 | 0.00 | 94 | 903.0 |
| 20260903044043 | 69 | 146 | 4.0 | 7.0 | 0.00 | 0.00 | 0.00 | 94 | 903.0 |
| 20260903025844 | 68 | 3 | 5.0 | 11.0 | 0.00 | 0.00 | 0.00 | 94 | 903.3 |
| 20260903025542 | 68 | 23 | 4.0 | 10.0 | 0.00 | 0.00 | 0.00 | 93 | 903.3 |
| 20260903025243 | 68 | 6 | 8.0 | 18.0 | 0.00 | 0.00 | 0.00 | 93 | 903.3 |
| 20260903025042 | 68 | 11 | 9.0 | 18.0 | 0.00 | 0.00 | 0.00 | 93 | 903.4 |
| 20260903024644 | 68 | 359 | 8.0 | 15.0 | 0.00 | 0.00 | 0.00 | 93 | 903.3 |
| 20260903024542 | 68 | 352 | 8.0 | 15.0 | 0.00 | 0.00 | 0.00 | 93 | 903.4 |
| 20260903024044 | 68 | 311 | 8.0 | 16.0 | 0.00 | 0.00 | 0.00 | 93 | 903.4 |
| 20260903024042 | 68 | 315 | 8.0 | 16.0 | 0.00 | 0.00 | 0.00 | 93 | 903.4 |
| 20260903023542 | 68 | 327 | 3.0 | 16.0 | 0.00 | 0.00 | 0.00 | 93 | 903.4 |
| 20260903023443 | 68 | 309 | 9.0 | 17.0 | 0.00 | 0.00 | 0.00 | 94 | 903.4 |
| 20260903023042 | 67 | 352 | 0.0 | 0.0 | 0.00 | 0.00 | 0.00 | 94 | 903.4 |
| 20260903022843 | 67 | 348 | 6.0 | 16.0 | 0.00 | 0.00 | 0.00 | 94 | 903.4 |
| 20260903022542 | 67 | 316 | 5.0 | 16.0 | 0.00 | 0.00 | 0.00 | 94 | 903.4 |
| 20260903022243 | 67 | 320 | 7.0 | 16.0 | 0.00 | 0.00 | 0.00 | 93 | 903.4 |
| 20260903022043 | 67 | 317 | 6.0 | 10.0 | 0.00 | 0.00 | 0.00 | 93 | 903.4 |
| 20260903021643 | 68 | 0 | 9.0 | 15.0 | 0.00 | 0.00 | 0.00 | 93 | 903.4 |
| 20260903021542 | 68 | 350 | 8.0 | 15.0 | 0.00 | 0.00 | 0.00 | 93 | 903.3 |
| 20260903021045 | 68 | 314 | 3.0 | 14.0 | 0.00 | 0.00 | 0.00 | 93 | 903.4 |
| 20260903020542 | 68 | 337 | 0.0 | 0.0 | 0.00 | 0.00 | 0.00 | 92 | 903.3 |
| 20260903020443 | 68 | 338 | 1.0 | 12.0 | 0.00 | 0.00 | 0.00 | 92 | 903.3 |
| 20260903020042 | 68 | 13 | 1.0 | 10.0 | 0.00 | 0.00 | 0.00 | 92 | 903.3 |
| 20260903015843 | 69 | 360 | 10.0 | 21.0 | 0.00 | 0.00 | 0.00 | 92 | 903.1 |
| 20260903015542 | 68 | 294 | 10.0 | 18.0 | 0.00 | 0.00 | 0.00 | 93 | 903.2 |
| 20260903015243 | 68 | 2 | 8.0 | 15.0 | 0.00 | 0.00 | 0.00 | 93 | 903.2 |
| 20260903015042 | 67 | 45 | 8.0 | 15.0 | 0.00 | 0.00 | 0.00 | 94 | 903.3 |
| 20260903014643 | 67 | 298 | 8.0 | 16.0 | 0.00 | 0.00 | 0.00 | 94 | 903.2 |
| 20260903014542 | 67 | 344 | 9.0 | 17.0 | 0.00 | 0.00 | 0.00 | 94 | 903.3 |
| 20260903014043 | 66 | 318 | 9.0 | 17.0 | 0.00 | 0.00 | 0.00 | 94 | 903.3 |
| 20260903013542 | 66 | 350 | 9.0 | 16.0 | 0.00 | 0.00 | 0.00 | 94 | 903.2 |
| 20260903013443 | 66 | 9 | 7.0 | 16.0 | 0.00 | 0.00 | 0.00 | 94 | 903.3 |
| 20260903013042 | 66 | 4 | 6.0 | 12.0 | 0.00 | 0.00 | 0.00 | 94 | 903.3 |
| 20260903012843 | 66 | 349 | 0.0 | 7.0 | 0.00 | 0.00 | 0.00 | 94 | 903.4 |
| 20260903012542 | 67 | 341 | 8.0 | 17.0 | 0.00 | 0.00 | 0.00 | 94 | 903.5 |
| 20260903012243 | 67 | 358 | 7.0 | 17.0 | 0.00 | 0.00 | 0.00 | 94 | 903.3 |
| 20260903012042 | 67 | 4 | 9.0 | 17.0 | 0.00 | 0.00 | 0.00 | 94 | 903.3 |
| 20260903011643 | 67 | 333 | 8.0 | 14.0 | 0.00 | 0.00 | 0.00 | 94 | 903.4 |
| 20260903011541 | 67 | 301 | 8.0 | 14.0 | 0.00 | 0.00 | 0.00 | 94 | 903.4 |
| 20260903011043 | 66 | 37 | 8.0 | 17.0 | 0.00 | 0.00 | 0.00 | 94 | 903.3 |
| 20260903010541 | 66 | 29 | 7.0 | 17.0 | 0.00 | 0.00 | 0.00 | 94 | 903.3 |
| 20260903010443 | 66 | 342 | 8.0 | 17.0 | 0.00 | 0.00 | 0.00 | 94 | 903.3 |
| 20260903010041 | 66 | 331 | 10.0 | 17.0 | 0.00 | 0.00 | 0.00 | 94 | 903.4 |
| 20260903005843 | 66 | 360 | 9.0 | 17.0 | 0.00 | 0.00 | 0.00 | 94 | 903.3 |
| 20260903005541 | 66 | 316 | 9.0 | 14.0 | 0.00 | 0.00 | 0.00 | 94 | 903.4 |
| 20260903005243 | 66 | 347 | 4.0 | 14.0 | 0.00 | 0.00 | 0.00 | 95 | 903.4 |
| 20260903005041 | 66 | 331 | 9.0 | 15.0 | 0.00 | 0.00 | 0.00 | 95 | 903.4 |
| 20260903004643 | 66 | 333 | 8.0 | 16.0 | 0.00 | 0.00 | 0.00 | 95 | 903.4 |
| 20260903004541 | 66 | 360 | 7.0 | 16.0 | 0.00 | 0.00 | 0.00 | 95 | 903.4 |
| 20260903004043 | 65 | 349 | 4.0 | 16.0 | 0.00 | 0.00 | 0.00 | 96 | 903.4 |
| 20260903004041 | 65 | 345 | 4.0 | 16.0 | 0.00 | 0.00 | 0.00 | 96 | 903.5 |
| 20260903003541 | 65 | 22 | 7.0 | 14.0 | 0.00 | 0.00 | 0.00 | 96 | 903.5 |
| 20260903003442 | 65 | 316 | 9.0 | 14.0 | 0.00 | 0.00 | 0.00 | 96 | 903.5 |
| 20260903003042 | 65 | 28 | 7.0 | 13.0 | 0.00 | 0.00 | 0.00 | 96 | 903.4 |
| 20260903002842 | 65 | 351 | 2.0 | 13.0 | 0.00 | 0.00 | 0.00 | 96 | 903.4 |
| 20260903002541 | 65 | 360 | 6.0 | 14.0 | 0.00 | 0.00 | 0.00 | 96 | 903.4 |
| 20260903002242 | 65 | 349 | 5.0 | 15.0 | 0.00 | 0.00 | 0.00 | 96 | 903.3 |
| 20260903002041 | 65 | 4 | 6.0 | 15.0 | 0.00 | 0.00 | 0.00 | 96 | 903.5 |
| 20260903001642 | 65 | 334 | 8.0 | 15.0 | 0.00 | 0.00 | 0.00 | 96 | 903.5 |
| 20260903001541 | 65 | 350 | 9.0 | 16.0 | 0.00 | 0.00 | 0.00 | 96 | 903.4 |
| 20260903001043 | 65 | 13 | 9.0 | 16.0 | 0.00 | 0.00 | 0.00 | 96 | 903.4 |
| 20260903001041 | 65 | 4 | 9.0 | 16.0 | 0.00 | 0.00 | 0.00 | 96 | 903.5 |
| 20260903000541 | 65 | 301 | 9.0 | 14.0 | 0.00 | 0.00 | 0.00 | 96 | 903.4 |
| 20260903000442 | 65 | 358 | 9.0 | 14.0 | 0.00 | 0.00 | 0.00 | 96 | 903.4 |
| 20260903000041 | 64 | 9 | 7.0 | 14.0 | 0.00 | 0.00 | 0.00 | 96 | 903.4 |
| 20260902235842 | 64 | 360 | 7.0 | 14.0 | 0.00 | 0.00 | 0.00 | 96 | 903.4 |
| 20260902235541 | 64 | 337 | 8.0 | 14.0 | 0.00 | 0.00 | 0.00 | 96 | 903.4 |
| 20260902235242 | 64 | 360 | 5.0 | 14.0 | 0.00 | 0.00 | 0.00 | 96 | 903.4 |
| 20260902235041 | 64 | 357 | 8.0 | 14.0 | 0.00 | 0.00 | 0.00 | 96 | 903.4 |
| 20260902234642 | 64 | 335 | 8.0 | 14.0 | 0.00 | 0.00 | 0.00 | 96 | 903.4 |
| 20260902234542 | 64 | 360 | 8.0 | 14.0 | 0.00 | 0.00 | 0.00 | 96 | 903.4 |
| 20260902234042 | 64 | 12 | 7.0 | 15.0 | 0.00 | 0.00 | 0.00 | 96 | 903.3 |
| 20260902233541 | 64 | 324 | 9.0 | 15.0 | 0.00 | 0.00 | 0.00 | 97 | 903.2 |
| 20260902233442 | 64 | 351 | 9.0 | 15.0 | 0.00 | 0.00 | 0.00 | 97 | 903.2 |
| 20260902233041 | 64 | 106 | 8.0 | 15.0 | 0.00 | 0.00 | 0.00 | 97 | 903.2 |
| 20260902232842 | 64 | 27 | 9.0 | 15.0 | 0.00 | 0.00 | 0.00 | 97 | 903.2 |
| 20260902232541 | 64 | 360 | 7.0 | 15.0 | 0.00 | 0.00 | 0.00 | 97 | 903.2 |
| 20260902232242 | 64 | 13 | 6.0 | 15.0 | 0.00 | 0.00 | 0.00 | 97 | 903.1 |
| 20260902232041 | 64 | 334 | 8.0 | 15.0 | 0.00 | 0.00 | 0.00 | 97 | 903.1 |
| 20260902231642 | 64 | 355 | 6.0 | 13.0 | 0.00 | 0.00 | 0.00 | 97 | 903.1 |
| 20260902231541 | 64 | 320 | 3.0 | 12.0 | 0.00 | 0.00 | 0.00 | 97 | 903.0 |
| 20260902231042 | 64 | 12 | 9.0 | 15.0 | 0.00 | 0.00 | 0.00 | 97 | 902.9 |
| 20260902230541 | 64 | 287 | 8.0 | 15.0 | 0.00 | 0.00 | 0.00 | 97 | 902.9 |
| 20260902230442 | 64 | 3 | 9.0 | 15.0 | 0.00 | 0.00 | 0.00 | 97 | 902.9 |
| 20260902230040 | 64 | 322 | 4.0 | 10.0 | 0.00 | 0.00 | 0.00 | 97 | 902.8 |
| 20260902225842 | 64 | 2 | 5.0 | 15.0 | 0.00 | 0.00 | 0.00 | 97 | 902.9 |
| 20260902225242 | 64 | 331 | 6.0 | 15.0 | 0.00 | 0.00 | 0.00 | 97 | 902.8 |
| 20260902225040 | 63 | 106 | 3.0 | 15.0 | 0.00 | 0.00 | 0.00 | 97 | 902.8 |
| 20260902224641 | 63 | 64 | 5.0 | 14.0 | 0.00 | 0.00 | 0.00 | 97 | 903.0 |
| 20260902224540 | 63 | 116 | 5.0 | 12.0 | 0.00 | 0.00 | 0.00 | 97 | 902.9 |
| 20260902224042 | 63 | 283 | 4.0 | 12.0 | 0.00 | 0.00 | 0.00 | 97 | 902.8 |
| 20260902224040 | 63 | 266 | 4.0 | 12.0 | 0.00 | 0.00 | 0.00 | 97 | 902.8 |
| 20260902223540 | 63 | 253 | 4.0 | 12.0 | 0.00 | 0.00 | 0.00 | 97 | 902.8 |
| 20260902223441 | 63 | 271 | 4.0 | 12.0 | 0.00 | 0.00 | 0.00 | 97 | 902.7 |
| 20260902223040 | 63 | 316 | 5.0 | 16.0 | 0.00 | 0.00 | 0.00 | 97 | 902.9 |
| 20260902222842 | 63 | 259 | 4.0 | 16.0 | 0.00 | 0.00 | 0.00 | 97 | 902.9 |
| 20260902222540 | 63 | 265 | 5.0 | 16.0 | 0.00 | 0.00 | 0.00 | 97 | 902.8 |
| 20260902222241 | 63 | 241 | 5.0 | 16.0 | 0.00 | 0.00 | 0.00 | 97 | 902.8 |
| 20260902222040 | 63 | 331 | 5.0 | 14.0 | 0.00 | 0.00 | 0.00 | 97 | 902.8 |
| 20260902221641 | 63 | 266 | 6.0 | 14.0 | 0.00 | 0.00 | 0.00 | 97 | 902.7 |
| 20260902221042 | 63 | 35 | 4.0 | 13.0 | 0.00 | 0.00 | 0.00 | 97 | 902.6 |
| 20260902221040 | 63 | 47 | 4.0 | 13.0 | 0.00 | 0.00 | 0.00 | 97 | 902.6 |
| 20260902220540 | 63 | 16 | 6.0 | 13.0 | 0.00 | 0.00 | 0.00 | 97 | 902.6 |
| 20260902220441 | 63 | 46 | 5.0 | 11.0 | 0.00 | 0.00 | 0.00 | 97 | 902.7 |
| 20260902220040 | 63 | 265 | 5.0 | 13.0 | 0.00 | 0.00 | 0.00 | 97 | 902.7 |
| 20260902215841 | 63 | 14 | 4.0 | 13.0 | 0.00 | 0.00 | 0.00 | 97 | 902.7 |
| 20260902215541 | 63 | 295 | 4.0 | 13.0 | 0.00 | 0.00 | 0.00 | 97 | 902.6 |
| 20260902215241 | 63 | 199 | 4.0 | 13.0 | 0.00 | 0.00 | 0.00 | 97 | 902.6 |
| 20260902214641 | 63 | 360 | 4.0 | 13.0 | 0.00 | 0.00 | 0.00 | 97 | 902.6 |
| 20260902214540 | 63 | 46 | 4.0 | 13.0 | 0.00 | 0.00 | 0.00 | 97 | 902.5 |
| 20260902214042 | 63 | 271 | 4.0 | 13.0 | 0.00 | 0.00 | 0.00 | 97 | 902.6 |
| 20260902214040 | 63 | 284 | 4.0 | 13.0 | 0.00 | 0.00 | 0.00 | 97 | 902.6 |
| 20260902213540 | 64 | 315 | 6.0 | 13.0 | 0.00 | 0.00 | 0.00 | 96 | 902.6 |
| 20260902213441 | 64 | 17 | 6.0 | 13.0 | 0.00 | 0.00 | 0.00 | 96 | 902.6 |
| 20260902213040 | 64 | 5 | 6.0 | 15.0 | 0.00 | 0.00 | 0.00 | 96 | 902.6 |
| 20260902212841 | 64 | 328 | 7.0 | 16.0 | 0.00 | 0.00 | 0.00 | 96 | 902.7 |
| 20260902212540 | 64 | 360 | 9.0 | 16.0 | 0.00 | 0.00 | 0.00 | 96 | 902.6 |
| 20260902212241 | 64 | 342 | 9.0 | 16.0 | 0.00 | 0.00 | 0.00 | 96 | 902.6 |
| 20260902212040 | 64 | 338 | 10.0 | 19.0 | 0.00 | 0.00 | 0.00 | 96 | 902.5 |
| 20260902211641 | 64 | 353 | 9.0 | 19.0 | 0.00 | 0.00 | 0.00 | 96 | 902.5 |
| 20260902211540 | 64 | 29 | 9.0 | 19.0 | 0.00 | 0.00 | 0.00 | 96 | 902.3 |
| 20260902211041 | 64 | 309 | 9.0 | 17.0 | 0.00 | 0.00 | 0.00 | 96 | 902.3 |
| 20260902210540 | 64 | 325 | 9.0 | 17.0 | 0.00 | 0.00 | 0.00 | 96 | 902.4 |
| 20260902210441 | 64 | 338 | 9.0 | 17.0 | 0.00 | 0.00 | 0.00 | 96 | 902.5 |
| 20260902210040 | 64 | 337 | 8.0 | 17.0 | 0.00 | 0.00 | 0.00 | 97 | 902.5 |
| 20260902205841 | 64 | 348 | 10.0 | 16.0 | 0.00 | 0.00 | 0.00 | 97 | 902.5 |
| 20260902205539 | 64 | 335 | 4.0 | 15.0 | 0.00 | 0.00 | 0.00 | 97 | 902.3 |
| 20260902205241 | 64 | 356 | 9.0 | 15.0 | 0.00 | 0.00 | 0.00 | 97 | 902.3 |
| 20260902205039 | 64 | 11 | 10.0 | 15.0 | 0.00 | 0.00 | 0.00 | 97 | 902.4 |
| 20260902204641 | 64 | 16 | 9.0 | 15.0 | 0.00 | 0.00 | 0.00 | 97 | 902.4 |
| 20260902204541 | 64 | 356 | 9.0 | 15.0 | 0.00 | 0.00 | 0.00 | 96 | 902.4 |
| 20260902204041 | 64 | 342 | 9.0 | 15.0 | 0.00 | 0.00 | 0.00 | 96 | 902.3 |
| 20260902204039 | 64 | 303 | 9.0 | 15.0 | 0.00 | 0.00 | 0.00 | 96 | 902.3 |
| 20260902203539 | 64 | 354 | 9.0 | 15.0 | 0.00 | 0.00 | 0.00 | 96 | 902.4 |
| 20260902203440 | 64 | 3 | 9.0 | 15.0 | 0.00 | 0.00 | 0.00 | 96 | 902.4 |
| 20260902203039 | 64 | 2 | 9.0 | 19.0 | 0.00 | 0.00 | 0.00 | 96 | 902.3 |
| 20260902202840 | 64 | 327 | 9.0 | 19.0 | 0.00 | 0.00 | 0.00 | 96 | 902.3 |
| 20260902202240 | 64 | 1 | 11.0 | 19.0 | 0.00 | 0.00 | 0.00 | 96 | 902.3 |
| 20260902202039 | 64 | 360 | 9.0 | 17.0 | 0.00 | 0.00 | 0.00 | 96 | 902.3 |
| 20260902201640 | 64 | 350 | 9.0 | 19.0 | 0.00 | 0.00 | 0.00 | 96 | 902.2 |
| 20260902201539 | 64 | 349 | 8.0 | 19.0 | 0.00 | 0.00 | 0.00 | 96 | 902.3 |
| 20260902201041 | 64 | 22 | 8.0 | 20.0 | 0.00 | 0.00 | 0.00 | 96 | 902.2 |
| 20260902201039 | 64 | 357 | 8.0 | 20.0 | 0.00 | 0.00 | 0.00 | 96 | 902.2 |
| 20260902200539 | 64 | 351 | 10.0 | 20.0 | 0.00 | 0.00 | 0.00 | 96 | 902.1 |
| 20260902200440 | 64 | 35 | 10.0 | 20.0 | 0.00 | 0.00 | 0.00 | 96 | 902.3 |
| 20260902200039 | 64 | 324 | 10.0 | 19.0 | 0.00 | 0.00 | 0.00 | 96 | 902.4 |
| 20260902195840 | 64 | 22 | 9.0 | 19.0 | 0.00 | 0.00 | 0.00 | 97 | 902.4 |
| 20260902195539 | 64 | 6 | 9.0 | 18.0 | 0.00 | 0.00 | 0.00 | 96 | 902.4 |
| 20260902195240 | 64 | 1 | 9.0 | 18.0 | 0.00 | 0.00 | 0.00 | 96 | 902.3 |
| 20260902195039 | 64 | 349 | 8.0 | 18.0 | 0.00 | 0.00 | 0.00 | 96 | 902.5 |
| 20260902194640 | 64 | 9 | 7.0 | 16.0 | 0.00 | 0.00 | 0.00 | 96 | 902.5 |
| 20260902194539 | 64 | 360 | 9.0 | 16.0 | 0.00 | 0.00 | 0.00 | 96 | 902.5 |
| 20260902194041 | 64 | 355 | 9.0 | 14.0 | 0.00 | 0.00 | 0.00 | 96 | 902.2 |
| 20260902194039 | 64 | 347 | 9.0 | 14.0 | 0.00 | 0.00 | 0.00 | 96 | 902.3 |
| 20260902193539 | 64 | 353 | 9.0 | 15.0 | 0.00 | 0.00 | 0.00 | 96 | 902.4 |
| 20260902193440 | 64 | 316 | 9.0 | 15.0 | 0.00 | 0.00 | 0.00 | 96 | 902.4 |
| 20260902193039 | 64 | 1 | 9.0 | 16.0 | 0.00 | 0.00 | 0.00 | 96 | 902.4 |
| 20260902192840 | 64 | 341 | 9.0 | 16.0 | 0.00 | 0.00 | 0.00 | 96 | 902.5 |
| 20260902192539 | 64 | 3 | 8.0 | 17.0 | 0.00 | 0.00 | 0.00 | 96 | 902.5 |
| 20260902192240 | 64 | 336 | 10.0 | 17.0 | 0.00 | 0.00 | 0.00 | 96 | 902.5 |
| 20260902192039 | 64 | 348 | 8.0 | 17.0 | 0.00 | 0.00 | 0.00 | 96 | 902.5 |
| 20260902191640 | 64 | 340 | 10.0 | 17.0 | 0.00 | 0.00 | 0.00 | 97 | 902.5 |
| 20260902191040 | 64 | 23 | 8.0 | 16.0 | 0.00 | 0.00 | 0.00 | 97 | 902.7 |
| 20260902191038 | 64 | 351 | 8.0 | 16.0 | 0.00 | 0.00 | 0.00 | 97 | 902.7 |
| 20260902190538 | 64 | 339 | 8.0 | 16.0 | 0.00 | 0.00 | 0.00 | 96 | 902.6 |
| 20260902190440 | 64 | 347 | 9.0 | 16.0 | 0.00 | 0.00 | 0.00 | 96 | 902.6 |
| 20260902190038 | 64 | 88 | 8.0 | 15.0 | 0.00 | 0.00 | 0.00 | 96 | 902.6 |
| 20260902185840 | 64 | 358 | 9.0 | 15.0 | 0.00 | 0.00 | 0.00 | 96 | 902.7 |
| 20260902185538 | 64 | 60 | 8.0 | 18.0 | 0.00 | 0.00 | 0.00 | 96 | 902.7 |
| 20260902185240 | 64 | 353 | 8.0 | 18.0 | 0.00 | 0.00 | 0.00 | 96 | 902.8 |
| 20260902185038 | 65 | 299 | 9.0 | 18.0 | 0.00 | 0.00 | 0.00 | 96 | 902.5 |
| 20260902184640 | 65 | 333 | 10.0 | 19.0 | 0.00 | 0.00 | 0.00 | 96 | 902.6 |
| 20260902184538 | 65 | 357 | 8.0 | 19.0 | 0.00 | 0.00 | 0.00 | 96 | 902.6 |
| 20260902184040 | 65 | 2 | 10.0 | 20.0 | 0.00 | 0.00 | 0.00 | 96 | 902.6 |
| 20260902184038 | 65 | 341 | 10.0 | 20.0 | 0.00 | 0.00 | 0.00 | 96 | 902.6 |
| 20260902183538 | 65 | 327 | 8.0 | 20.0 | 0.00 | 0.00 | 0.00 | 96 | 902.7 |
| 20260902183440 | 65 | 330 | 9.0 | 20.0 | 0.00 | 0.00 | 0.00 | 96 | 902.7 |
| 20260902183038 | 65 | 351 | 10.0 | 17.0 | 0.00 | 0.00 | 0.00 | 96 | 902.6 |
| 20260902182840 | 65 | 266 | 10.0 | 17.0 | 0.00 | 0.00 | 0.00 | 96 | 902.8 |
| 20260902182538 | 65 | 5 | 10.0 | 17.0 | 0.00 | 0.00 | 0.00 | 96 | 902.6 |
| 20260902182240 | 65 | 340 | 6.0 | 16.0 | 0.00 | 0.00 | 0.00 | 96 | 902.8 |
| 20260902182038 | 65 | 2 | 8.0 | 18.0 | 0.00 | 0.00 | 0.00 | 96 | 902.9 |
| 20260902181639 | 65 | 336 | 9.0 | 18.0 | 0.00 | 0.00 | 0.00 | 96 | 902.9 |
| 20260902181538 | 65 | 360 | 9.0 | 18.0 | 0.00 | 0.00 | 0.00 | 96 | 903.0 |
| 20260902181040 | 65 | 303 | 9.0 | 17.0 | 0.00 | 0.00 | 0.00 | 96 | 903.1 |
| 20260902180439 | 65 | 347 | 9.0 | 16.0 | 0.00 | 0.00 | 0.00 | 97 | 903.2 |
| 20260902175839 | 65 | 2 | 8.0 | 14.0 | 0.00 | 0.00 | 0.00 | 96 | 903.4 |
| 20260902175538 | 65 | 319 | 6.0 | 13.0 | 0.00 | 0.00 | 0.00 | 97 | 903.3 |
| 20260902175239 | 65 | 331 | 8.0 | 18.0 | 0.00 | 0.00 | 0.00 | 97 | 903.4 |
| 20260902175038 | 65 | 313 | 8.0 | 18.0 | 0.00 | 0.00 | 0.00 | 97 | 903.5 |
| 20260902174639 | 65 | 11 | 3.0 | 13.0 | 0.00 | 0.00 | 0.00 | 97 | 903.4 |
| 20260902174538 | 64 | 32 | 0.0 | 0.0 | 0.00 | 0.00 | 0.00 | 97 | 903.5 |
| 20260902174039 | 65 | 63 | 8.0 | 19.0 | 0.00 | 0.00 | 0.00 | 97 | 903.5 |
| 20260902173538 | 65 | 29 | 9.0 | 19.0 | 0.00 | 0.00 | 0.00 | 97 | 903.3 |
| 20260902173439 | 65 | 325 | 10.0 | 19.0 | 0.00 | 0.00 | 0.00 | 97 | 903.4 |
| 20260902173039 | 65 | 296 | 7.0 | 18.0 | 0.00 | 0.00 | 0.00 | 97 | 903.6 |
| 20260902172839 | 65 | 329 | 8.0 | 18.0 | 0.00 | 0.00 | 0.00 | 96 | 903.5 |
| 20260902172538 | 65 | 305 | 8.0 | 18.0 | 0.00 | 0.00 | 0.00 | 96 | 903.5 |
| 20260902172239 | 65 | 10 | 9.0 | 18.0 | 0.00 | 0.00 | 0.00 | 97 | 903.5 |
| 20260902171639 | 65 | 338 | 7.0 | 21.0 | 0.00 | 0.00 | 0.00 | 97 | 903.4 |
| 20260902171538 | 65 | 298 | 8.0 | 21.0 | 0.00 | 0.00 | 0.00 | 97 | 903.5 |
| 20260902171039 | 65 | 360 | 8.0 | 22.0 | 0.00 | 0.00 | 0.00 | 97 | 903.5 |
| 20260902170538 | 65 | 43 | 8.0 | 19.0 | 0.00 | 0.00 | 0.00 | 97 | 903.6 |
| 20260902170439 | 65 | 360 | 10.0 | 19.0 | 0.00 | 0.00 | 0.00 | 97 | 903.6 |
| 20260902170037 | 65 | 3 | 7.0 | 19.0 | 0.00 | 0.00 | 0.00 | 97 | 903.7 |
| 20260902165839 | 65 | 0 | 8.0 | 19.0 | 0.00 | 0.00 | 0.00 | 97 | 903.5 |
| 20260902165537 | 65 | 317 | 8.0 | 19.0 | 0.00 | 0.00 | 0.00 | 97 | 903.5 |
| 20260902165239 | 65 | 305 | 8.0 | 19.0 | 0.00 | 0.00 | 0.00 | 97 | 903.5 |
| 20260902165038 | 65 | 350 | 7.0 | 19.0 | 0.00 | 0.00 | 0.00 | 97 | 903.6 |
| 20260902164639 | 65 | 21 | 10.0 | 19.0 | 0.00 | 0.00 | 0.00 | 97 | 903.6 |
| 20260902164537 | 65 | 315 | 9.0 | 19.0 | 0.00 | 0.00 | 0.00 | 97 | 903.5 |
| 20260902164039 | 65 | 14 | 10.0 | 19.0 | 0.00 | 0.00 | 0.00 | 97 | 903.4 |
| 20260902164037 | 65 | 2 | 10.0 | 19.0 | 0.00 | 0.00 | 0.00 | 97 | 903.4 |
| 20260902163439 | 65 | 333 | 9.0 | 18.0 | 0.00 | 0.00 | 0.00 | 97 | 903.4 |
| 20260902162839 | 65 | 360 | 10.0 | 18.0 | 0.00 | 0.00 | 0.00 | 97 | 903.3 |
| 20260902162239 | 65 | 327 | 9.0 | 23.0 | 0.00 | 0.00 | 0.00 | 97 | 903.4 |
| 20260902161639 | 66 | 310 | 11.0 | 23.0 | 0.00 | 0.00 | 0.00 | 97 | 903.4 |
| 20260902161537 | 66 | 353 | 10.0 | 17.0 | 0.00 | 0.00 | 0.00 | 97 | 903.4 |
| 20260902161039 | 66 | 360 | 8.0 | 17.0 | 0.00 | 0.00 | 0.00 | 97 | 903.4 |
| 20260902161037 | 66 | 350 | 8.0 | 17.0 | 0.00 | 0.00 | 0.00 | 97 | 903.4 |
| 20260902160440 | 65 | 322 | 0.0 | 0.0 | 0.00 | 0.00 | 0.00 | 97 | 903.5 |
| 20260902160037 | 65 | 360 | 10.0 | 21.0 | 0.00 | 0.00 | 0.00 | 97 | 903.4 |
| 20260902155839 | 65 | 349 | 10.0 | 18.0 | 0.00 | 0.00 | 0.00 | 97 | 903.4 |
| 20260902155537 | 66 | 358 | 10.0 | 21.0 | 0.00 | 0.00 | 0.00 | 97 | 903.6 |
| 20260902155238 | 66 | 15 | 10.0 | 21.0 | 0.00 | 0.00 | 0.00 | 97 | 903.5 |
| 20260902155037 | 66 | 359 | 11.0 | 21.0 | 0.00 | 0.00 | 0.00 | 97 | 903.5 |
| 20260902154638 | 66 | 342 | 8.0 | 23.0 | 0.00 | 0.00 | 0.00 | 97 | 903.5 |
| 20260902154537 | 66 | 319 | 10.0 | 23.0 | 0.00 | 0.00 | 0.00 | 97 | 903.5 |
| 20260902154039 | 65 | 12 | 12.0 | 23.0 | 0.00 | 0.00 | 0.00 | 97 | 903.5 |
| 20260902154037 | 65 | 15 | 12.0 | 23.0 | 0.00 | 0.00 | 0.00 | 97 | 903.5 |
| 20260902153537 | 66 | 360 | 10.0 | 19.0 | 0.00 | 0.00 | 0.00 | 97 | 903.4 |
| 20260902153438 | 66 | 317 | 10.0 | 19.0 | 0.00 | 0.00 | 0.00 | 98 | 903.5 |
| 20260902153037 | 66 | 327 | 9.0 | 23.0 | 0.00 | 0.00 | 0.00 | 98 | 903.6 |
| 20260902152838 | 66 | 5 | 11.0 | 23.0 | 0.00 | 0.00 | 0.00 | 98 | 903.4 |
| 20260902152537 | 66 | 335 | 10.0 | 20.0 | 0.00 | 0.00 | 0.00 | 98 | 903.7 |
| 20260902152238 | 66 | 296 | 10.0 | 18.0 | 0.00 | 0.00 | 0.00 | 98 | 903.7 |
| 20260902152037 | 66 | 21 | 10.0 | 18.0 | 0.00 | 0.00 | 0.00 | 98 | 903.6 |
| 20260902151638 | 66 | 14 | 9.0 | 15.0 | 0.00 | 0.00 | 0.00 | 98 | 903.7 |
| 20260902151537 | 66 | 14 | 10.0 | 15.0 | 0.00 | 0.00 | 0.00 | 99 | 903.7 |
| 20260902144038 | 66 | 316 | 11.0 | 20.0 | 0.00 | 0.00 | 0.00 | 98 | 904.0 |
| 20260902144036 | 66 | 335 | 11.0 | 20.0 | 0.00 | 0.00 | 0.00 | 98 | 904.0 |
| 20260902143536 | 66 | 322 | 9.0 | 18.0 | 0.00 | 0.00 | 0.00 | 98 | 904.0 |
| 20260902143438 | 66 | 360 | 9.0 | 16.0 | 0.00 | 0.00 | 0.00 | 98 | 904.1 |
| 20260902143036 | 66 | 350 | 8.0 | 18.0 | 0.00 | 0.00 | 0.00 | 98 | 904.1 |
| 20260902142838 | 66 | 309 | 8.0 | 18.0 | 0.00 | 0.00 | 0.00 | 98 | 904.1 |
| 20260902142536 | 66 | 335 | 10.0 | 18.0 | 0.00 | 0.00 | 0.00 | 98 | 904.1 |
| 20260902142238 | 66 | 360 | 11.0 | 18.0 | 0.00 | 0.00 | 0.00 | 98 | 904.1 |
| 20260902142036 | 66 | 354 | 9.0 | 15.0 | 0.00 | 0.00 | 0.00 | 98 | 904.1 |
| 20260902141638 | 66 | 6 | 9.0 | 14.0 | 0.00 | 0.00 | 0.00 | 98 | 904.2 |
| 20260902141536 | 66 | 333 | 6.0 | 12.0 | 0.00 | 0.00 | 0.00 | 98 | 904.0 |
| 20260902141038 | 66 | 342 | 3.0 | 13.0 | 0.00 | 0.00 | 0.00 | 98 | 904.1 |
| 20260902141036 | 66 | 13 | 3.0 | 13.0 | 0.00 | 0.00 | 0.00 | 98 | 904.1 |
| 20260902140537 | 66 | 336 | 0.0 | 8.0 | 0.00 | 0.00 | 0.00 | 98 | 904.0 |
| 20260902140438 | 66 | 316 | 4.0 | 11.0 | 0.00 | 0.00 | 0.00 | 98 | 904.0 |
| 20260902140036 | 66 | 63 | 1.0 | 6.0 | 0.00 | 0.00 | 0.00 | 98 | 904.1 |
| 20260902135536 | 66 | 330 | 4.0 | 10.0 | 0.00 | 0.00 | 0.00 | 98 | 904.1 |
| 20260902135237 | 66 | 300 | 4.0 | 10.0 | 0.00 | 0.00 | 0.00 | 98 | 904.1 |
| 20260902135036 | 66 | 271 | 4.0 | 8.0 | 0.00 | 0.00 | 0.00 | 98 | 904.1 |
| 20260902134638 | 66 | 261 | 2.0 | 7.0 | 0.00 | 0.00 | 0.00 | 98 | 904.0 |
| 20260902134536 | 66 | 256 | 1.0 | 4.0 | 0.00 | 0.00 | 0.00 | 98 | 903.9 |
| 20260902134038 | 66 | 42 | 0.0 | 5.0 | 0.00 | 0.00 | 0.00 | 98 | 903.8 |
| 20260902134036 | 66 | 46 | 0.0 | 5.0 | 0.00 | 0.00 | 0.00 | 98 | 903.8 |
| 20260902133536 | 66 | 327 | 7.0 | 15.0 | 0.00 | 0.00 | 0.00 | 98 | 903.9 |
| 20260902133437 | 66 | 52 | 7.0 | 15.0 | 0.00 | 0.00 | 0.00 | 98 | 903.9 |
| 20260902132837 | 66 | 355 | 7.0 | 15.0 | 0.00 | 0.00 | 0.00 | 98 | 903.8 |
| 20260902132536 | 66 | 18 | 1.0 | 8.0 | 0.00 | 0.00 | 0.00 | 98 | 903.9 |
| 20260902132237 | 66 | 360 | 6.0 | 11.0 | 0.00 | 0.00 | 0.00 | 98 | 903.9 |
| 20260902132036 | 66 | 3 | 4.0 | 10.0 | 0.00 | 0.00 | 0.00 | 98 | 904.1 |
| 20260902131637 | 66 | 18 | 5.0 | 12.0 | 0.00 | 0.00 | 0.00 | 98 | 904.0 |
| 20260902131536 | 66 | 360 | 5.0 | 12.0 | 0.00 | 0.00 | 0.00 | 98 | 903.9 |
| 20260902131036 | 66 | 200 | 5.0 | 10.0 | 0.00 | 0.00 | 0.00 | 98 | 903.9 |
| 20260902130537 | 66 | 4 | 5.0 | 13.0 | 0.00 | 0.00 | 0.00 | 98 | 903.9 |
| 20260902130437 | 67 | 355 | 6.0 | 13.0 | 0.00 | 0.00 | 0.00 | 98 | 903.7 |
| 20260902130036 | 67 | 64 | 6.0 | 11.0 | 0.00 | 0.00 | 0.00 | 98 | 903.7 |
| 20260902125837 | 67 | 34 | 4.0 | 11.0 | 0.00 | 0.00 | 0.00 | 98 | 903.7 |
| 20260902125536 | 67 | 6 | 7.0 | 16.0 | 0.00 | 0.00 | 0.00 | 98 | 903.5 |
| 20260902125237 | 67 | 360 | 7.0 | 16.0 | 0.00 | 0.00 | 0.00 | 98 | 903.5 |
| 20260902125036 | 67 | 20 | 7.0 | 13.0 | 0.00 | 0.00 | 0.00 | 98 | 903.6 |
| 20260902124536 | 67 | 71 | 6.0 | 13.0 | 0.00 | 0.00 | 0.00 | 98 | 903.4 |
| 20260902124037 | 67 | 16 | 7.0 | 13.0 | 0.00 | 0.00 | 0.00 | 98 | 903.5 |
| 20260902124035 | 67 | 31 | 7.0 | 13.0 | 0.00 | 0.00 | 0.00 | 98 | 903.5 |
| 20260902123536 | 67 | 28 | 2.0 | 13.0 | 0.00 | 0.00 | 0.00 | 99 | 903.4 |
| 20260902123437 | 67 | 351 | 3.0 | 8.0 | 0.00 | 0.00 | 0.00 | 99 | 903.5 |
| 20260902123035 | 66 | 296 | 0.0 | 10.0 | 0.00 | 0.00 | 0.00 | 99 | 903.3 |
| 20260902122535 | 67 | 320 | 8.0 | 13.0 | 0.00 | 0.00 | 0.00 | 98 | 903.5 |
| 20260902121637 | 67 | 352 | 9.0 | 16.0 | 0.00 | 0.00 | 0.00 | 98 | 903.4 |
| 20260902121535 | 67 | 238 | 8.0 | 16.0 | 0.00 | 0.00 | 0.00 | 98 | 903.4 |
| 20260902121037 | 67 | 348 | 8.0 | 16.0 | 0.00 | 0.00 | 0.00 | 98 | 903.4 |
| 20260902121035 | 67 | 327 | 8.0 | 16.0 | 0.00 | 0.00 | 0.00 | 98 | 903.4 |
| 20260902120535 | 67 | 347 | 7.0 | 16.0 | 0.00 | 0.00 | 0.00 | 98 | 903.5 |
| 20260902120436 | 67 | 328 | 7.0 | 16.0 | 0.00 | 0.00 | 0.00 | 98 | 903.5 |
| 20260902120035 | 67 | 32 | 6.0 | 16.0 | 0.00 | 0.00 | 0.00 | 98 | 903.3 |
| 20260902115836 | 67 | 360 | 8.0 | 16.0 | 0.00 | 0.00 | 0.00 | 98 | 903.2 |
| 20260902115535 | 67 | 69 | 6.0 | 14.0 | 0.00 | 0.00 | 0.00 | 98 | 903.3 |
| 20260902115236 | 67 | 91 | 7.0 | 14.0 | 0.00 | 0.00 | 0.00 | 98 | 903.2 |
| 20260902115035 | 67 | 6 | 2.0 | 11.0 | 0.00 | 0.00 | 0.00 | 98 | 903.2 |
| 20260902114636 | 67 | 40 | 8.0 | 14.0 | 0.00 | 0.00 | 0.00 | 98 | 903.2 |
| 20260902114535 | 67 | 29 | 7.0 | 14.0 | 0.00 | 0.00 | 0.00 | 98 | 903.2 |
| 20260902114037 | 67 | 19 | 2.0 | 10.0 | 0.00 | 0.00 | 0.00 | 98 | 903.2 |
| 20260902114035 | 67 | 360 | 2.0 | 10.0 | 0.00 | 0.00 | 0.00 | 98 | 903.2 |
| 20260902113535 | 67 | 35 | 5.0 | 10.0 | 0.00 | 0.00 | 0.00 | 98 | 903.2 |
| 20260902113436 | 67 | 53 | 4.0 | 10.0 | 0.00 | 0.00 | 0.00 | 98 | 903.2 |
| 20260902113035 | 67 | 277 | 7.0 | 15.0 | 0.00 | 0.00 | 0.00 | 98 | 903.0 |
| 20260902112836 | 67 | 334 | 7.0 | 15.0 | 0.00 | 0.00 | 0.00 | 98 | 903.1 |
| 20260902112535 | 67 | 56 | 5.0 | 15.0 | 0.00 | 0.00 | 0.00 | 98 | 903.0 |
| 20260902112236 | 67 | 45 | 8.0 | 15.0 | 0.00 | 0.00 | 0.00 | 98 | 903.0 |
| 20260902112035 | 67 | 10 | 8.0 | 15.0 | 0.00 | 0.00 | 0.00 | 98 | 902.9 |
| 20260902111636 | 67 | 349 | 8.0 | 15.0 | 0.00 | 0.00 | 0.00 | 98 | 902.8 |
| 20260902111535 | 67 | 49 | 8.0 | 15.0 | 0.00 | 0.00 | 0.00 | 98 | 902.9 |
| 20260902111037 | 68 | 86 | 6.0 | 15.0 | 0.00 | 0.00 | 0.00 | 98 | 902.9 |
| 20260902111035 | 68 | 44 | 6.0 | 15.0 | 0.00 | 0.00 | 0.00 | 98 | 902.9 |
| 20260902110535 | 68 | 355 | 7.0 | 15.0 | 0.00 | 0.00 | 0.00 | 98 | 902.8 |
| 20260902110436 | 68 | 51 | 7.0 | 15.0 | 0.00 | 0.00 | 0.00 | 98 | 902.9 |
| 20260902110035 | 68 | 7 | 6.0 | 13.0 | 0.00 | 0.00 | 0.00 | 98 | 902.8 |
| 20260902105836 | 68 | 17 | 5.0 | 13.0 | 0.00 | 0.00 | 0.00 | 98 | 902.8 |
| 20260902105535 | 68 | 37 | 4.0 | 11.0 | 0.00 | 0.00 | 0.00 | 98 | 902.7 |
| 20260902105236 | 68 | 26 | 5.0 | 11.0 | 0.00 | 0.00 | 0.00 | 98 | 902.7 |
| 20260902105036 | 68 | 100 | 4.0 | 11.0 | 0.00 | 0.00 | 0.00 | 98 | 902.7 |
| 20260902104636 | 68 | 262 | 2.0 | 8.0 | 0.00 | 0.00 | 0.00 | 98 | 902.7 |
| 20260902104036 | 68 | 341 | 5.0 | 12.0 | 0.00 | 0.00 | 0.00 | 98 | 902.7 |
| 20260902103534 | 68 | 55 | 7.0 | 17.0 | 0.00 | 0.00 | 0.00 | 98 | 902.7 |
| 20260902103436 | 68 | 39 | 6.0 | 17.0 | 0.00 | 0.00 | 0.00 | 98 | 902.5 |
| 20260902103034 | 68 | 77 | 7.0 | 19.0 | 0.00 | 0.00 | 0.00 | 98 | 902.6 |
| 20260902102836 | 68 | 7 | 6.0 | 19.0 | 0.00 | 0.00 | 0.00 | 98 | 902.7 |
| 20260902102534 | 68 | 36 | 6.0 | 19.0 | 0.00 | 0.00 | 0.00 | 98 | 902.7 |
| 20260902102236 | 68 | 37 | 7.0 | 19.0 | 0.00 | 0.00 | 0.00 | 98 | 902.4 |
| 20260902102034 | 68 | 13 | 8.0 | 13.0 | 0.00 | 0.00 | 0.00 | 98 | 902.5 |
| 20260902101636 | 68 | 20 | 6.0 | 13.0 | 0.00 | 0.00 | 0.00 | 98 | 902.6 |
| 20260902101534 | 68 | 57 | 5.0 | 13.0 | 0.00 | 0.00 | 0.00 | 98 | 902.7 |
| 20260902101036 | 68 | 32 | 7.0 | 13.0 | 0.00 | 0.00 | 0.00 | 98 | 902.6 |
| 20260902101034 | 68 | 29 | 7.0 | 13.0 | 0.00 | 0.00 | 0.00 | 98 | 902.7 |
| 20260902100535 | 68 | 351 | 0.0 | 0.0 | 0.00 | 0.00 | 0.00 | 98 | 902.6 |
| 20260902100436 | 68 | 2 | 8.0 | 12.0 | 0.00 | 0.00 | 0.00 | 98 | 902.5 |
| 20260902100034 | 68 | 347 | 7.0 | 13.0 | 0.00 | 0.00 | 0.00 | 98 | 902.5 |
| 20260902095838 | 68 | 37 | 6.0 | 13.0 | 0.00 | 0.00 | 0.00 | 98 | 902.4 |
| 20260902095534 | 68 | 17 | 6.0 | 13.0 | 0.00 | 0.00 | 0.00 | 98 | 902.5 |
| 20260902095235 | 68 | 39 | 6.0 | 12.0 | 0.00 | 0.00 | 0.00 | 98 | 902.5 |
| 20260902095034 | 68 | 25 | 6.0 | 12.0 | 0.00 | 0.00 | 0.00 | 98 | 902.4 |
| 20260902094635 | 68 | 12 | 7.0 | 14.0 | 0.00 | 0.00 | 0.00 | 98 | 902.5 |
| 20260902094534 | 68 | 16 | 8.0 | 14.0 | 0.00 | 0.00 | 0.00 | 98 | 902.4 |
| 20260902094036 | 68 | 39 | 8.0 | 14.0 | 0.00 | 0.00 | 0.00 | 98 | 902.4 |
| 20260902094034 | 68 | 2 | 8.0 | 14.0 | 0.00 | 0.00 | 0.00 | 98 | 902.4 |
| 20260902093534 | 68 | 341 | 7.0 | 18.0 | 0.00 | 0.00 | 0.00 | 98 | 902.4 |
| 20260902093435 | 68 | 350 | 7.0 | 18.0 | 0.00 | 0.00 | 0.00 | 98 | 902.4 |
| 20260902093034 | 69 | 360 | 7.0 | 18.0 | 0.00 | 0.00 | 0.00 | 98 | 902.3 |
| 20260902092835 | 69 | 352 | 7.0 | 18.0 | 0.00 | 0.00 | 0.00 | 98 | 902.3 |
| 20260902092534 | 69 | 42 | 8.0 | 13.0 | 0.00 | 0.00 | 0.00 | 98 | 902.4 |
| 20260902092235 | 69 | 19 | 8.0 | 13.0 | 0.00 | 0.00 | 0.00 | 98 | 902.3 |
| 20260902092034 | 69 | 55 | 8.0 | 13.0 | 0.00 | 0.00 | 0.00 | 98 | 902.4 |
| 20260902091635 | 69 | 19 | 6.0 | 11.0 | 0.00 | 0.00 | 0.00 | 98 | 902.4 |
| 20260902091534 | 69 | 46 | 4.0 | 10.0 | 0.00 | 0.00 | 0.00 | 98 | 902.5 |
| 20260902091037 | 69 | 339 | 2.0 | 11.0 | 0.00 | 0.00 | 0.00 | 98 | 902.4 |
| 20260902091035 | 69 | 11 | 2.0 | 11.0 | 0.00 | 0.00 | 0.00 | 98 | 902.4 |
| 20260902090534 | 69 | 12 | 8.0 | 16.0 | 0.00 | 0.00 | 0.00 | 98 | 902.4 |
| 20260902090435 | 69 | 337 | 7.0 | 16.0 | 0.00 | 0.00 | 0.00 | 98 | 902.4 |
| 20260902090034 | 69 | 43 | 7.0 | 15.0 | 0.00 | 0.00 | 0.00 | 98 | 902.4 |
| 20260902085835 | 69 | 53 | 6.0 | 15.0 | 0.00 | 0.00 | 0.00 | 98 | 902.3 |
| 20260902085535 | 69 | 309 | 7.0 | 15.0 | 0.00 | 0.00 | 0.00 | 98 | 902.3 |
| 20260902085235 | 69 | 360 | 6.0 | 15.0 | 0.00 | 0.00 | 0.00 | 98 | 902.2 |
| 20260902085034 | 69 | 66 | 6.0 | 11.0 | 0.00 | 0.00 | 0.00 | 98 | 902.2 |
| 20260902084635 | 69 | 32 | 3.0 | 9.0 | 0.00 | 0.00 | 0.00 | 98 | 902.3 |
| 20260902084534 | 69 | 46 | 0.0 | 8.0 | 0.00 | 0.00 | 0.00 | 98 | 902.3 |
| 20260902084036 | 69 | 6 | 4.0 | 12.0 | 0.00 | 0.00 | 0.00 | 98 | 902.3 |
| 20260902083534 | 69 | 20 | 5.0 | 12.0 | 0.00 | 0.00 | 0.00 | 98 | 902.2 |
| 20260902083435 | 69 | 47 | 5.0 | 12.0 | 0.00 | 0.00 | 0.00 | 98 | 902.3 |
| 20260902083034 | 69 | 50 | 5.0 | 10.0 | 0.00 | 0.00 | 0.00 | 98 | 902.2 |
| 20260902082835 | 69 | 113 | 4.0 | 9.0 | 0.00 | 0.00 | 0.00 | 98 | 902.2 |
| 20260902082534 | 69 | 111 | 0.0 | 4.0 | 0.00 | 0.00 | 0.00 | 98 | 902.1 |
| 20260902082235 | 69 | 18 | 4.0 | 10.0 | 0.00 | 0.00 | 0.00 | 98 | 902.3 |
| 20260902082034 | 69 | 15 | 3.0 | 10.0 | 0.00 | 0.00 | 0.00 | 99 | 902.2 |
| 20260902081635 | 69 | 113 | 4.0 | 10.0 | 0.00 | 0.00 | 0.00 | 98 | 902.2 |
| 20260902081533 | 69 | 61 | 4.0 | 13.0 | 0.00 | 0.00 | 0.00 | 98 | 902.2 |
| 20260902081035 | 69 | 12 | 5.0 | 13.0 | 0.00 | 0.00 | 0.00 | 98 | 902.1 |
| 20260902080534 | 69 | 318 | 4.0 | 11.0 | 0.00 | 0.00 | 0.00 | 98 | 902.1 |
| 20260902080435 | 69 | 51 | 4.0 | 11.0 | 0.00 | 0.00 | 0.00 | 98 | 902.2 |
| 20260902080033 | 70 | 145 | 1.0 | 6.0 | 0.00 | 0.00 | 0.00 | 99 | 902.0 |
| 20260902075835 | 70 | 71 | 3.0 | 9.0 | 0.00 | 0.00 | 0.00 | 98 | 902.0 |
| 20260902075533 | 70 | 73 | 4.0 | 9.0 | 0.00 | 0.00 | 0.00 | 98 | 902.0 |
| 20260902075235 | 70 | 75 | 4.0 | 9.0 | 0.00 | 0.00 | 0.00 | 98 | 902.0 |
| 20260902075033 | 69 | 97 | 4.0 | 9.0 | 0.00 | 0.00 | 0.00 | 98 | 902.0 |
| 20260902074635 | 69 | 121 | 4.0 | 13.0 | 0.00 | 0.00 | 0.00 | 98 | 902.0 |
| 20260902074533 | 69 | 70 | 4.0 | 13.0 | 0.00 | 0.00 | 0.00 | 98 | 902.0 |
| 20260902074035 | 69 | 11 | 6.0 | 13.0 | 0.00 | 0.00 | 0.00 | 98 | 902.2 |
| 20260902074033 | 69 | 360 | 6.0 | 13.0 | 0.00 | 0.00 | 0.00 | 98 | 902.2 |
| 20260902073533 | 69 | 265 | 3.0 | 8.0 | 0.00 | 0.00 | 0.00 | 98 | 902.3 |
| 20260902073434 | 69 | 358 | 4.0 | 8.0 | 0.00 | 0.00 | 0.00 | 98 | 902.2 |
| 20260902073033 | 70 | 315 | 3.0 | 6.0 | 0.00 | 0.00 | 0.00 | 98 | 902.3 |
| 20260902072834 | 70 | 68 | 1.0 | 6.0 | 0.00 | 0.00 | 0.00 | 99 | 902.2 |
| 20260902072533 | 70 | 73 | 2.0 | 4.0 | 0.00 | 0.00 | 0.00 | 99 | 902.3 |
| 20260902072234 | 69 | 5 | 4.0 | 10.0 | 0.00 | 0.00 | 0.00 | 98 | 902.1 |
| 20260902072033 | 69 | 342 | 3.0 | 10.0 | 0.00 | 0.00 | 0.00 | 98 | 902.3 |
| 20260902071634 | 69 | 343 | 5.0 | 10.0 | 0.00 | 0.00 | 0.00 | 98 | 902.2 |
| 20260902071533 | 69 | 8 | 4.0 | 10.0 | 0.00 | 0.00 | 0.00 | 98 | 902.3 |
| 20260902071035 | 69 | 360 | 3.0 | 7.0 | 0.00 | 0.00 | 0.00 | 98 | 902.3 |
| 20260902071033 | 69 | 38 | 3.0 | 7.0 | 0.00 | 0.00 | 0.00 | 98 | 902.3 |
| 20260902070533 | 69 | 74 | 4.0 | 9.0 | 0.00 | 0.00 | 0.00 | 98 | 902.2 |
| 20260902070434 | 69 | 64 | 4.0 | 9.0 | 0.00 | 0.00 | 0.00 | 98 | 902.2 |
| 20260902070033 | 69 | 360 | 4.0 | 9.0 | 0.00 | 0.00 | 0.00 | 98 | 902.3 |
| 20260902065533 | 69 | 258 | 4.0 | 7.0 | 0.00 | 0.00 | 0.00 | 98 | 902.2 |
| 20260902065234 | 69 | 13 | 0.0 | 3.0 | 0.00 | 0.00 | 0.00 | 99 | 902.3 |
| 20260902065033 | 69 | 25 | 3.0 | 8.0 | 0.00 | 0.00 | 0.00 | 98 | 902.3 |
| 20260902064533 | 69 | 349 | 3.0 | 7.0 | 0.00 | 0.00 | 0.00 | 98 | 902.3 |
| 20260902064035 | 69 | 149 | 2.0 | 7.0 | 0.00 | 0.00 | 0.00 | 99 | 902.3 |
| 20260902064033 | 69 | 147 | 2.0 | 7.0 | 0.00 | 0.00 | 0.00 | 99 | 902.3 |
| 20260902063533 | 69 | 45 | 4.0 | 10.0 | 0.00 | 0.00 | 0.00 | 99 | 902.4 |
| 20260902063434 | 69 | 68 | 5.0 | 10.0 | 0.00 | 0.00 | 0.00 | 99 | 902.3 |
| 20260902063032 | 69 | 39 | 4.0 | 11.0 | 0.00 | 0.00 | 0.00 | 98 | 902.4 |
| 20260902062834 | 69 | 65 | 4.0 | 11.0 | 0.00 | 0.00 | 0.00 | 98 | 902.3 |
| 20260902062533 | 69 | 4 | 5.0 | 10.0 | 0.00 | 0.00 | 0.00 | 98 | 902.4 |
| 20260902062234 | 69 | 94 | 4.0 | 10.0 | 0.00 | 0.00 | 0.00 | 98 | 902.4 |
| 20260902062033 | 69 | 37 | 4.0 | 10.0 | 0.00 | 0.00 | 0.00 | 98 | 902.4 |
| 20260902061634 | 69 | 355 | 5.0 | 10.0 | 0.00 | 0.00 | 0.00 | 98 | 902.4 |
| 20260902061532 | 69 | 9 | 5.0 | 12.0 | 0.00 | 0.00 | 0.00 | 98 | 902.5 |
| 20260902061034 | 69 | 5 | 5.0 | 12.0 | 0.00 | 0.00 | 0.00 | 98 | 902.5 |
| 20260902061032 | 69 | 29 | 5.0 | 12.0 | 0.00 | 0.00 | 0.00 | 98 | 902.5 |
| 20260902060532 | 69 | 355 | 1.0 | 9.0 | 0.00 | 0.00 | 0.00 | 99 | 902.6 |
| 20260902060435 | 69 | 31 | 2.0 | 9.0 | 0.00 | 0.00 | 0.00 | 99 | 902.6 |
| 20260902060032 | 69 | 52 | 2.0 | 7.0 | 0.00 | 0.00 | 0.00 | 99 | 902.5 |
| 20260902055834 | 69 | 10 | 4.0 | 8.0 | 0.00 | 0.00 | 0.00 | 99 | 902.4 |
| 20260902055234 | 69 | 311 | 5.0 | 14.0 | 0.00 | 0.00 | 0.00 | 98 | 902.5 |
| 20260902055032 | 69 | 15 | 5.0 | 14.0 | 0.00 | 0.00 | 0.00 | 98 | 902.5 |
| 20260902054634 | 69 | 3 | 7.0 | 14.0 | 0.00 | 0.00 | 0.00 | 98 | 902.6 |
| 20260902054532 | 69 | 6 | 6.0 | 14.0 | 0.00 | 0.00 | 0.00 | 98 | 902.5 |
| 20260902054034 | 69 | 19 | 5.0 | 13.0 | 0.00 | 0.00 | 0.00 | 98 | 902.6 |
| 20260902054032 | 69 | 25 | 5.0 | 13.0 | 0.00 | 0.00 | 0.00 | 98 | 902.6 |
| 20260902053532 | 69 | 181 | 5.0 | 13.0 | 0.00 | 0.00 | 0.00 | 98 | 902.7 |
| 20260902053434 | 69 | 350 | 5.0 | 13.0 | 0.00 | 0.00 | 0.00 | 98 | 902.7 |
| 20260902053032 | 69 | 283 | 4.0 | 12.0 | 0.00 | 0.00 | 0.00 | 98 | 902.7 |
| 20260902052833 | 69 | 358 | 6.0 | 12.0 | 0.00 | 0.00 | 0.00 | 98 | 902.8 |
| 20260902052532 | 69 | 360 | 6.0 | 15.0 | 0.00 | 0.00 | 0.00 | 98 | 902.8 |
| 20260902052234 | 69 | 18 | 8.0 | 15.0 | 0.00 | 0.00 | 0.00 | 98 | 902.9 |
| 20260902052032 | 69 | 19 | 7.0 | 15.0 | 0.00 | 0.00 | 0.00 | 98 | 902.8 |
| 20260902051633 | 69 | 5 | 2.0 | 9.0 | 0.00 | 0.00 | 0.00 | 98 | 902.8 |
| 20260902051532 | 69 | 353 | 5.0 | 15.0 | 0.00 | 0.00 | 0.00 | 98 | 902.8 |
| 20260902051034 | 69 | 281 | 7.0 | 15.0 | 0.00 | 0.00 | 0.00 | 98 | 902.8 |
| 20260902051032 | 69 | 284 | 7.0 | 15.0 | 0.00 | 0.00 | 0.00 | 98 | 902.8 |
| 20260902050433 | 69 | 352 | 6.0 | 16.0 | 0.00 | 0.00 | 0.00 | 98 | 902.9 |
| 20260902050032 | 69 | 344 | 7.0 | 16.0 | 0.00 | 0.00 | 0.00 | 98 | 902.8 |
| 20260902045833 | 69 | 40 | 9.0 | 19.0 | 0.00 | 0.00 | 0.00 | 98 | 902.7 |
| 20260902045532 | 68 | 21 | 0.0 | 12.0 | 0.00 | 0.00 | 0.00 | 98 | 902.7 |